This is the latest recevied weather packets stored in our database for station/object KC4GS-13. If no packets are shown the sender has not sent any weather packets the latest 1 day(s).
| Time | Temp. | Humidity | Pressure | Rain* | Wind** | Luminosity | Snow |
|---|---|---|---|---|---|---|---|
| 1777995479 | 25° C | 57% | 1017.9 hPa | 0 mm | 0.45 m/s, 120° | 887 W/m² | - |
| 1777995176 | 25° C | 59% | 1018.2 hPa | 0 mm | 0 m/s | 903 W/m² | - |
| 1777994874 | 25° C | 60% | 1018.6 hPa | 0 mm | 0 m/s | 912 W/m² | - |
| 1777994569 | 25° C | 60% | 1018.4 hPa | 0 mm | 0 m/s | 859 W/m² | - |
| 1777994264 | 24.44° C | 61% | 1018.4 hPa | 0 mm | 0 m/s | 819 W/m² | - |
| 1777993962 | 23.89° C | 61% | 1018.8 hPa | 0 mm | 0 m/s | 459 W/m² | - |
| 1777993658 | 23.33° C | 64% | 1018.6 hPa | 0 mm | 0.45 m/s, 130° | 513 W/m² | - |
| 1777993356 | 22.78° C | 64% | 1018.9 hPa | 0 mm | 0 m/s | 818 W/m² | - |
| 1777993050 | 22.78° C | 67% | 1018.8 hPa | 0 mm | 0.45 m/s, 118° | 747 W/m² | - |
| 1777992749 | 22.78° C | 68% | 1018.6 hPa | 0 mm | 1.34 m/s, 133° | 216 W/m² | - |
| 1777992446 | 22.22° C | 68% | 1018.6 hPa | 0 mm | 0 m/s | 179 W/m² | - |
| 1777992144 | 22.22° C | 69% | 1018.8 hPa | 0 mm | 0.45 m/s, 116° | 308 W/m² | - |
| 1777991841 | 21.67° C | 71% | 1018.3 hPa | 0 mm | 0 m/s | 93 W/m² | - |
| 1777991538 | 21.11° C | 71% | 1018.3 hPa | 0 mm | 0.45 m/s, 128° | 278 W/m² | - |
| 1777991235 | 21.67° C | 72% | 1018.4 hPa | 0 mm | 0 m/s | 57 W/m² | - |
| 1777990932 | 21.11° C | 72% | 1018.8 hPa | 0 mm | 0 m/s | 284 W/m² | - |
| 1777990630 | 21.11° C | 72% | 1018.4 hPa | 0 mm | 0.45 m/s, 153° | 107 W/m² | - |
| 1777990327 | 20.56° C | 71% | 1018.4 hPa | 0 mm | 0.45 m/s, 138° | 58 W/m² | - |
| 1777990023 | 20.56° C | 72% | 1018.2 hPa | 0 mm | 0 m/s | 112 W/m² | - |
| 1777989720 | 20.56° C | 74% | 1018.1 hPa | 0 mm | 0 m/s | 209 W/m² | - |
| 1777989416 | 20.56° C | 75% | 1018 hPa | 0 mm | 0 m/s | 167 W/m² | - |
| 1777989113 | 20° C | 76% | 1018 hPa | 0 mm | 0 m/s | 159 W/m² | - |
| 1777988808 | 20° C | 76% | 1018 hPa | 0 mm | 0 m/s | 91 W/m² | - |
| 1777988506 | 20° C | 77% | 1017.8 hPa | 0 mm | 0 m/s | 128 W/m² | - |
| 1777988203 | 19.44° C | 77% | 1018 hPa | 0 mm | 0.45 m/s, 129° | 150 W/m² | - |
* Rain latest hour (hover to see other rain measurements)
** Current wind speed in m/s (hover to see current wind gust speed)